| time (UTC) | temp C | wind direction | speed KPH | gust KPH | rain 1hr cm | rain 24hr cm | rain mn cm | humidity % | barometer mb |
| 20260504081550 | 4 | 274 | 0.0 | 1.6 | 0.00 | 0.00 | 0.00 | 78 | 1016.4 |
| 20260504050106 | 4 | 274 | 0.0 | 1.6 | 0.00 | 0.00 | 0.00 | 73 | 1017.3 |
| 20260504044554 | 4 | 0 | 0.0 | 1.6 | 0.00 | 0.00 | 0.00 | 72 | 1017.2 |
| 20260504043057 | 4 | 0 | 0.0 | 0.0 | 0.00 | 0.00 | 0.00 | 71 | 1017.1 |
| 20260504041550 | 4 | 0 | 0.0 | 0.0 | 0.00 | 0.00 | 0.00 | 71 | 1017.0 |
| 20260504034556 | 5 | 0 | 0.0 | 0.0 | 0.00 | 0.00 | 0.00 | 69 | 1017.1 |
| 20260504033057 | 5 | 0 | 0.0 | 0.0 | 0.00 | 0.00 | 0.00 | 68 | 1016.9 |
| 20260504031555 | 5 | 0 | 0.0 | 0.0 | 0.00 | 0.00 | 0.00 | 67 | 1016.9 |
| 20260504030053 | 5 | 0 | 0.0 | 0.0 | 0.00 | 0.00 | 0.00 | 66 | 1017.0 |
| 20260504024554 | 6 | 0 | 0.0 | 1.6 | 0.00 | 0.00 | 0.00 | 65 | 1017.2 |
| 20260504023053 | 6 | 0 | 0.0 | 1.6 | 0.00 | 0.00 | 0.00 | 63 | 1017.3 |
| 20260504021556 | 6 | 0 | 0.0 | 1.6 | 0.00 | 0.00 | 0.00 | 62 | 1017.1 |
| 20260504020115 | 6 | 0 | 0.0 | 1.6 | 0.00 | 0.00 | 0.00 | 60 | 1017.0 |
| 20260504014601 | 7 | 0 | 0.0 | 0.0 | 0.00 | 0.00 | 0.00 | 57 | 1017.0 |
| 20260504013108 | 7 | 0 | 0.0 | 0.0 | 0.00 | 0.00 | 0.00 | 54 | 1016.7 |
| 20260504011549 | 8 | 0 | 0.0 | 1.6 | 0.00 | 0.00 | 0.00 | 53 | 1016.5 |
| 20260504010051 | 8 | 0 | 0.0 | 0.0 | 0.00 | 0.00 | 0.00 | 49 | 1016.5 |
| 20260504004552 | 9 | 0 | 0.0 | 1.6 | 0.00 | 0.00 | 0.00 | 47 | 1016.4 |
| 20260504003049 | 10 | 0 | 0.0 | 0.0 | 0.00 | 0.00 | 0.00 | 44 | 1016.2 |
| 20260504001549 | 11 | 0 | 0.0 | 1.6 | 0.00 | 0.00 | 0.00 | 41 | 1015.9 |
| 20260504000053 | 11 | 0 | 0.0 | 6.4 | 0.00 | 0.00 | 0.00 | 38 | 1015.9 |
| 20260503234548 | 12 | 286 | 0.0 | 4.8 | 0.00 | 0.00 | 0.00 | 37 | 1016.1 |
| 20260503233049 | 12 | 0 | 3.2 | 14.5 | 0.00 | 0.00 | 0.00 | 36 | 1016.0 |
| 20260503231556 | 12 | 0 | 0.0 | 12.9 | 0.00 | 0.00 | 0.00 | 36 | 1016.1 |
| 20260503230053 | 12 | 0 | 1.6 | 11.3 | 0.00 | 0.00 | 0.00 | 32 | 1016.1 |
| 20260503224559 | 13 | 264 | 1.6 | 8.0 | 0.00 | 0.00 | 0.00 | 33 | 1016.2 |
| 20260503223055 | 13 | 145 | 0.0 | 6.4 | 0.00 | 0.00 | 0.00 | 34 | 1016.2 |
| 20260503221601 | 14 | 312 | 1.6 | 11.3 | 0.00 | 0.00 | 0.00 | 31 | 1016.1 |
| 20260503220054 | 15 | 360 | 0.0 | 11.3 | 0.00 | 0.00 | 0.00 | 27 | 1016.2 |
| 20260503214553 | 15 | 69 | 1.6 | 8.0 | 0.00 | 0.00 | 0.00 | 29 | 1016.2 |
| 20260503213050 | 15 | 0 | 1.6 | 9.7 | 0.00 | 0.00 | 0.00 | 25 | 1016.4 |
| 20260503211550 | 14 | 104 | 1.6 | 9.7 | 0.00 | 0.00 | 0.00 | 29 | 1016.6 |
| 20260503210054 | 15 | 153 | 3.2 | 9.7 | 0.00 | 0.00 | 0.00 | 30 | 1016.6 |
| 20260503204616 | 14 | 316 | 3.2 | 11.3 | 0.00 | 0.00 | 0.00 | 28 | 1016.6 |
| 20260503203100 | 13 | 91 | 3.2 | 16.1 | 0.00 | 0.00 | 0.00 | 28 | 1016.8 |
| 20260503201554 | 13 | 105 | 1.6 | 8.0 | 0.00 | 0.00 | 0.00 | 28 | 1017.0 |
| 20260503200053 | 13 | 119 | 1.6 | 11.3 | 0.00 | 0.00 | 0.00 | 27 | 1017.2 |
| 20260503194600 | 13 | 0 | 1.6 | 16.1 | 0.00 | 0.00 | 0.00 | 27 | 1017.6 |
| 20260503193110 | 13 | 150 | 1.6 | 9.7 | 0.00 | 0.00 | 0.00 | 30 | 1017.5 |
| 20260503191610 | 13 | 23 | 4.8 | 12.9 | 0.00 | 0.00 | 0.00 | 32 | 1017.8 |
| 20260503190050 | 13 | 175 | 3.2 | 12.9 | 0.00 | 0.00 | 0.00 | 31 | 1018.2 |
| 20260503184551 | 12 | 0 | 4.8 | 11.3 | 0.00 | 0.00 | 0.00 | 32 | 1018.2 |
| 20260503183054 | 12 | 267 | 3.2 | 16.1 | 0.00 | 0.00 | 0.00 | 32 | 1018.5 |
| 20260503181553 | 12 | 167 | 3.2 | 12.9 | 0.00 | 0.00 | 0.00 | 33 | 1018.5 |
| 20260503180100 | 11 | 5 | 1.6 | 14.5 | 0.00 | 0.00 | 0.00 | 34 | 1018.9 |
| 20260503174554 | 11 | 201 | 3.2 | 11.3 | 0.00 | 0.00 | 0.00 | 36 | 1019.0 |
| 20260503173058 | 11 | 147 | 1.6 | 11.3 | 0.00 | 0.00 | 0.00 | 35 | 1019.2 |
| 20260503171553 | 10 | 192 | 1.6 | 9.7 | 0.00 | 0.00 | 0.00 | 38 | 1019.1 |